Back to catalog

SL-8 R/B

AlivePO
NORAD 6708·ROCKET BODY·🇷🇺 Russia

Launched Jun 20, 1973 from Plesetsk Cosmodrome

Loading…

Next Passes (next 24 hours)

TLE

FreshSource: Space-Track

Epoch: Sep 14, 2026, 12:30 UTC

1 06708U 73042B   26257.52117767  .00000142  00000-0  13385-3 0  9995
2 06708  82.9409  81.6664 0013180 171.1221 205.3531 13.74578642668291

Track SL-8 R/B in real time with AllMySat

Download on the App Store